Time,TemperatureF,DewpointF,PressureIn,WindDirection,WindDirectionDegrees,WindSpeedMPH,WindSpeedGustMPH,Humidity,HourlyPrecipIn,Conditions,Clouds,dailyrainin,SolarRadiationWatts/m^2,SoftwareType,DateUTC
2013-09-12 00:06:00,75.8,74.0,30.01,East,98,0.0,-999.0,94,-99.99,,,0.00,0,weatherlink.com 1.10,2013-09-12 04:06:00,
2013-09-12 00:21:00,75.7,74.0,30.01,East,98,0.0,-999.0,94,-99.99,,,0.00,0,weatherlink.com 1.10,2013-09-12 04:21:00,
2013-09-12 00:36:00,75.4,74.0,30.00,East,98,0.0,-999.0,94,-99.99,,,0.00,0,weatherlink.com 1.10,2013-09-12 04:36:00,
2013-09-12 00:51:00,75.2,73.0,29.98,East,98,0.0,-999.0,94,-99.99,,,0.00,0,weatherlink.com 1.10,2013-09-12 04:51:00,
2013-09-12 01:06:00,75.1,73.0,29.99,East,98,0.0,-999.0,94,-99.99,,,0.00,0,weatherlink.com 1.10,2013-09-12 05:06:00,
2013-09-12 01:21:00,75.3,74.0,29.99,East,98,0.0,-999.0,94,-99.99,,,0.00,0,weatherlink.com 1.10,2013-09-12 05:21:00,
2013-09-12 01:36:00,75.4,74.0,29.98,East,98,0.0,-999.0,95,-99.99,,,0.00,0,weatherlink.com 1.10,2013-09-12 05:36:00,
2013-09-12 01:51:00,75.3,74.0,29.98,East,98,0.0,-999.0,95,-99.99,,,0.00,0,weatherlink.com 1.10,2013-09-12 05:51:00,
2013-09-12 02:06:00,75.3,74.0,29.98,East,98,0.0,-999.0,95,-99.99,,,0.00,0,weatherlink.com 1.10,2013-09-12 06:06:00,
2013-09-12 02:21:00,75.3,74.0,29.97,East,98,0.0,-999.0,95,-99.99,,,0.01,0,weatherlink.com 1.10,2013-09-12 06:21:00,
2013-09-12 02:36:00,75.6,74.0,29.97,East,98,0.0,-999.0,95,-99.99,,,0.01,0,weatherlink.com 1.10,2013-09-12 06:36:00,
2013-09-12 02:51:00,75.8,74.0,29.97,East,98,0.0,-999.0,95,-99.99,,,0.01,0,weatherlink.com 1.10,2013-09-12 06:51:00,
2013-09-12 03:06:00,75.8,74.0,29.97,East,98,0.0,-999.0,95,-99.99,,,0.01,0,weatherlink.com 1.10,2013-09-12 07:06:00,
2013-09-12 03:21:00,75.7,74.0,29.96,East,98,0.0,-999.0,95,-99.99,,,0.01,0,weatherlink.com 1.10,2013-09-12 07:21:00,
2013-09-12 03:36:00,75.7,74.0,29.95,East,98,0.0,-999.0,95,-99.99,,,0.01,0,weatherlink.com 1.10,2013-09-12 07:36:00,
2013-09-12 03:51:00,75.6,74.0,29.95,East,98,0.0,-999.0,95,-99.99,,,0.01,0,weatherlink.com 1.10,2013-09-12 07:51:00,
2013-09-12 04:06:00,75.5,74.0,29.95,East,98,0.0,-999.0,95,-99.99,,,0.01,0,weatherlink.com 1.10,2013-09-12 08:06:00,
2013-09-12 04:21:00,75.5,74.0,29.96,East,98,0.0,-999.0,95,-99.99,,,0.01,0,weatherlink.com 1.10,2013-09-12 08:21:00,
2013-09-12 04:36:00,75.3,74.0,29.95,East,98,0.0,-999.0,95,-99.99,,,0.01,0,weatherlink.com 1.10,2013-09-12 08:36:00,
2013-09-12 04:51:00,75.3,74.0,29.95,East,98,0.0,-999.0,95,-99.99,,,0.01,0,weatherlink.com 1.10,2013-09-12 08:51:00,
2013-09-12 05:06:00,75.2,74.0,29.95,East,98,0.0,-999.0,95,-99.99,,,0.01,0,weatherlink.com 1.10,2013-09-12 09:06:00,
2013-09-12 05:21:00,75.3,74.0,29.95,East,98,0.0,-999.0,96,-99.99,,,0.01,0,weatherlink.com 1.10,2013-09-12 09:21:00,
2013-09-12 05:36:00,75.3,74.0,29.96,East,98,0.0,-999.0,95,-99.99,,,0.01,0,weatherlink.com 1.10,2013-09-12 09:36:00,
2013-09-12 05:51:00,75.4,74.0,29.96,East,98,0.0,-999.0,95,-99.99,,,0.01,0,weatherlink.com 1.10,2013-09-12 09:51:00,
2013-09-12 06:06:00,75.5,74.0,29.96,East,98,0.0,-999.0,96,-99.99,,,0.01,0,weatherlink.com 1.10,2013-09-12 10:06:00,
2013-09-12 06:21:00,75.6,74.0,29.97,East,98,0.0,-999.0,95,-99.99,,,0.01,0,weatherlink.com 1.10,2013-09-12 10:21:00,
2013-09-12 06:36:00,75.7,75.0,29.97,East,98,0.0,-999.0,96,-99.99,,,0.01,0,weatherlink.com 1.10,2013-09-12 10:36:00,
2013-09-12 06:51:00,75.7,75.0,29.97,East,98,0.0,-999.0,96,-99.99,,,0.01,0,weatherlink.com 1.10,2013-09-12 10:51:00,
2013-09-12 07:06:00,75.8,75.0,29.97,East,98,0.0,-999.0,96,-99.99,,,0.01,0,weatherlink.com 1.10,2013-09-12 11:06:00,
2013-09-12 07:21:00,75.8,75.0,29.97,East,98,0.0,-999.0,96,-99.99,,,0.01,7,weatherlink.com 1.10,2013-09-12 11:21:00,
2013-09-12 07:36:00,76.1,75.0,29.96,East,98,0.0,-999.0,96,-99.99,,,0.01,12,weatherlink.com 1.10,2013-09-12 11:36:00,
2013-09-12 07:51:00,76.1,75.0,29.97,East,98,0.0,-999.0,96,-99.99,,,0.01,21,weatherlink.com 1.10,2013-09-12 11:51:00,
2013-09-12 08:06:00,76.3,75.0,29.98,East,98,0.0,-999.0,96,-99.99,,,0.01,28,weatherlink.com 1.10,2013-09-12 12:06:00,
2013-09-12 08:21:00,76.5,75.0,29.98,East,98,0.0,-999.0,96,-99.99,,,0.01,32,weatherlink.com 1.10,2013-09-12 12:21:00,
2013-09-12 08:36:00,77.0,76.0,29.99,East,98,0.0,-999.0,96,-99.99,,,0.01,53,weatherlink.com 1.10,2013-09-12 12:36:00,
2013-09-12 08:52:00,77.6,76.0,29.99,East,98,0.0,-999.0,96,-99.99,,,0.01,65,weatherlink.com 1.10,2013-09-12 12:52:00,
2013-09-12 09:07:00,78.0,77.0,29.99,East,98,0.0,-999.0,96,-99.99,,,0.01,65,weatherlink.com 1.10,2013-09-12 13:07:00,
2013-09-12 09:22:00,77.9,77.0,29.99,East,92,0.0,-999.0,96,-99.99,,,0.01,83,weatherlink.com 1.10,2013-09-12 13:22:00,
2013-09-12 09:37:00,78.0,77.0,29.99,East,94,0.0,-999.0,96,-99.99,,,0.01,67,weatherlink.com 1.10,2013-09-12 13:37:00,
2013-09-12 09:52:00,77.5,76.0,29.99,East,92,0.0,-999.0,96,-99.99,,,0.01,102,weatherlink.com 1.10,2013-09-12 13:52:00,
2013-09-12 10:07:00,77.8,77.0,29.99,East,92,0.0,-999.0,96,-99.99,,,0.01,105,weatherlink.com 1.10,2013-09-12 14:07:00,
2013-09-12 10:22:00,78.3,77.0,29.99,East,96,0.0,-999.0,96,-99.99,,,0.01,104,weatherlink.com 1.10,2013-09-12 14:22:00,
2013-09-12 10:37:00,78.9,78.0,29.99,East,95,0.0,-999.0,96,-99.99,,,0.01,204,weatherlink.com 1.10,2013-09-12 14:37:00,
2013-09-12 10:52:00,79.9,78.0,29.99,East,94,0.0,-999.0,95,-99.99,,,0.01,260,weatherlink.com 1.10,2013-09-12 14:52:00,
2013-09-12 11:07:00,81.2,79.0,29.99,East,101,2.0,-999.0,93,-99.99,,,0.01,355,weatherlink.com 1.10,2013-09-12 15:07:00,
2013-09-12 11:22:00,81.8,79.0,29.99,ESE,109,0.0,-999.0,90,-99.99,,,0.01,403,weatherlink.com 1.10,2013-09-12 15:22:00,
2013-09-12 11:37:00,82.5,77.0,29.99,ESE,114,2.0,-999.0,83,-99.99,,,0.01,450,weatherlink.com 1.10,2013-09-12 15:37:00,
2013-09-12 11:52:00,83.8,75.0,29.99,ESE,113,0.0,-999.0,75,-99.99,,,0.01,408,weatherlink.com 1.10,2013-09-12 15:52:00,
2013-09-12 12:07:00,84.4,74.0,29.98,ESE,113,0.0,-999.0,70,-99.99,,,0.01,355,weatherlink.com 1.10,2013-09-12 16:07:00,
2013-09-12 12:22:00,83.9,74.0,29.98,ESE,113,0.0,-999.0,72,-99.99,,,0.01,415,weatherlink.com 1.10,2013-09-12 16:22:00,
2013-09-12 12:37:00,83.6,76.0,29.98,ESE,113,0.0,-999.0,77,-99.99,,,0.01,387,weatherlink.com 1.10,2013-09-12 16:37:00,
2013-09-12 12:52:00,83.2,76.0,29.98,ENE,75,0.0,-999.0,78,-99.99,,,0.01,325,weatherlink.com 1.10,2013-09-12 16:52:00,
2013-09-12 13:07:00,83.6,76.0,29.98,ENE,73,0.0,-999.0,78,-99.99,,,0.01,376,weatherlink.com 1.10,2013-09-12 17:07:00,
2013-09-12 13:22:00,83.6,77.0,29.97,East,95,0.0,-999.0,81,-99.99,,,0.01,373,weatherlink.com 1.10,2013-09-12 17:22:00,
2013-09-12 13:38:00,83.6,77.0,29.96,ESE,111,0.0,-999.0,81,-99.99,,,0.01,302,weatherlink.com 1.10,2013-09-12 17:38:00,
2013-09-12 13:52:00,83.5,78.0,29.96,ESE,108,0.0,-999.0,83,-99.99,,,0.01,279,weatherlink.com 1.10,2013-09-12 17:52:00,
2013-09-12 14:07:00,83.7,78.0,29.95,ESE,111,0.0,-999.0,83,-99.99,,,0.01,378,weatherlink.com 1.10,2013-09-12 18:07:00,
2013-09-12 14:22:00,83.8,78.0,29.95,East,96,0.0,-999.0,82,-99.99,,,0.01,348,weatherlink.com 1.10,2013-09-12 18:22:00,
2013-09-12 14:37:00,84.3,78.0,29.95,East,88,0.0,-999.0,81,-99.99,,,0.01,385,weatherlink.com 1.10,2013-09-12 18:37:00,
2013-09-12 14:52:00,84.3,78.0,29.94,East,88,0.0,-999.0,81,-99.99,,,0.01,265,weatherlink.com 1.10,2013-09-12 18:52:00,
2013-09-12 15:07:00,84.4,78.0,29.93,East,89,0.0,-999.0,81,-99.99,,,0.01,311,weatherlink.com 1.10,2013-09-12 19:07:00,
2013-09-12 15:22:00,84.4,78.0,29.92,NE,53,6.0,-999.0,81,-99.99,,,0.01,288,weatherlink.com 1.10,2013-09-12 19:22:00,
2013-09-12 15:37:00,84.1,78.0,29.91,East,84,2.0,-999.0,82,-99.99,,,0.01,255,weatherlink.com 1.10,2013-09-12 19:37:00,
2013-09-12 15:53:00,84.0,78.0,29.91,ENE,77,0.0,-999.0,82,-99.99,,,0.01,213,weatherlink.com 1.10,2013-09-12 19:53:00,
2013-09-12 16:08:00,84.1,78.0,29.90,NE,54,0.0,-999.0,82,-99.99,,,0.01,188,weatherlink.com 1.10,2013-09-12 20:08:00,
2013-09-12 16:23:00,84.1,78.0,29.90,East,84,0.0,-999.0,82,-99.99,,,0.01,338,weatherlink.com 1.10,2013-09-12 20:23:00,
2013-09-12 16:38:00,84.5,78.0,29.89,ENE,67,0.0,-999.0,81,-99.99,,,0.01,204,weatherlink.com 1.10,2013-09-12 20:38:00,
2013-09-12 17:08:00,84.1,77.0,29.89,East,88,3.0,-999.0,80,-99.99,,,0.01,190,weatherlink.com 1.10,2013-09-12 21:08:00,
2013-09-12 17:23:00,84.3,78.0,29.89,ENE,71,0.0,-999.0,81,-99.99,,,0.01,190,weatherlink.com 1.10,2013-09-12 21:23:00,
2013-09-12 17:38:00,84.0,78.0,29.88,East,87,0.0,-999.0,81,-99.99,,,0.01,149,weatherlink.com 1.10,2013-09-12 21:38:00,
2013-09-12 17:53:00,83.9,78.0,29.89,ENE,76,0.0,-999.0,81,-99.99,,,0.01,118,weatherlink.com 1.10,2013-09-12 21:53:00,
2013-09-12 18:08:00,83.8,77.0,29.89,East,79,0.0,-999.0,81,-99.99,,,0.01,84,weatherlink.com 1.10,2013-09-12 22:08:00,
2013-09-12 18:23:00,83.6,77.0,29.89,East,79,0.0,-999.0,79,-99.99,,,0.01,76,weatherlink.com 1.10,2013-09-12 22:23:00,
2013-09-12 18:38:00,83.7,77.0,29.90,ENE,76,0.0,-999.0,80,-99.99,,,0.01,47,weatherlink.com 1.10,2013-09-12 22:38:00,
2013-09-12 18:53:00,83.4,77.0,29.89,East,81,0.0,-999.0,80,-99.99,,,0.01,30,weatherlink.com 1.10,2013-09-12 22:53:00,
2013-09-12 19:08:00,83.1,76.0,29.89,East,81,0.0,-999.0,80,-99.99,,,0.01,11,weatherlink.com 1.10,2013-09-12 23:08:00,
2013-09-12 19:23:00,82.9,77.0,29.90,East,81,0.0,-999.0,81,-99.99,,,0.01,0,weatherlink.com 1.10,2013-09-12 23:23:00,
2013-09-12 19:38:00,82.6,76.0,29.90,East,81,0.0,-999.0,81,-99.99,,,0.01,0,weatherlink.com 1.10,2013-09-12 23:38:00,
2013-09-12 19:53:00,82.3,76.0,29.91,East,81,0.0,-999.0,82,-99.99,,,0.01,0,weatherlink.com 1.10,2013-09-12 23:53:00,
2013-09-12 20:08:00,82.0,76.0,29.91,East,81,0.0,-999.0,82,-99.99,,,0.01,0,weatherlink.com 1.10,2013-09-13 00:08:00,
2013-09-12 20:23:00,81.7,76.0,29.91,East,81,0.0,-999.0,83,-99.99,,,0.01,0,weatherlink.com 1.10,2013-09-13 00:23:00,
2013-09-12 20:38:00,81.5,76.0,29.91,East,81,0.0,-999.0,84,-99.99,,,0.01,0,weatherlink.com 1.10,2013-09-13 00:38:00,
2013-09-12 20:53:00,81.3,76.0,29.91,East,81,0.0,-999.0,84,-99.99,,,0.01,0,weatherlink.com 1.10,2013-09-13 00:53:00,
2013-09-12 21:08:00,81.2,76.0,29.92,East,81,0.0,-999.0,85,-99.99,,,0.01,0,weatherlink.com 1.10,2013-09-13 01:08:00,
2013-09-12 21:23:00,81.0,77.0,29.92,East,81,0.0,-999.0,86,-99.99,,,0.01,0,weatherlink.com 1.10,2013-09-13 01:23:00,
2013-09-12 21:38:00,80.8,76.0,29.92,East,81,0.0,-999.0,86,-99.99,,,0.01,0,weatherlink.com 1.10,2013-09-13 01:38:00,
2013-09-12 21:53:00,80.6,76.0,29.92,East,81,0.0,-999.0,86,-99.99,,,0.01,0,weatherlink.com 1.10,2013-09-13 01:53:00,
2013-09-12 22:08:00,80.5,76.0,29.92,East,81,0.0,-999.0,87,-99.99,,,0.01,0,weatherlink.com 1.10,2013-09-13 02:08:00,
2013-09-12 22:23:00,80.3,76.0,29.91,East,81,0.0,-999.0,87,-99.99,,,0.01,0,weatherlink.com 1.10,2013-09-13 02:23:00,
2013-09-12 22:38:00,80.2,76.0,29.91,East,81,0.0,-999.0,87,-99.99,,,0.01,0,weatherlink.com 1.10,2013-09-13 02:38:00,
2013-09-12 22:53:00,80.2,76.0,29.91,East,81,0.0,-999.0,87,-99.99,,,0.01,0,weatherlink.com 1.10,2013-09-13 02:53:00,
2013-09-12 23:08:00,80.0,76.0,29.91,East,81,0.0,-999.0,88,-99.99,,,0.01,0,weatherlink.com 1.10,2013-09-13 03:08:00,
2013-09-12 23:23:00,79.8,76.0,29.90,East,81,0.0,-999.0,88,-99.99,,,0.01,0,weatherlink.com 1.10,2013-09-13 03:23:00,
2013-09-12 23:38:00,79.7,76.0,29.90,East,81,0.0,-999.0,88,-99.99,,,0.01,0,weatherlink.com 1.10,2013-09-13 03:38:00,
2013-09-12 23:53:00,79.5,76.0,29.90,East,81,0.0,-999.0,89,-99.99,,,0.00,0,weatherlink.com 1.10,2013-09-13 03:53:00,